User: anonymous   Login
Location: Volcán Tajumulco
(15.0427°N, 91.9045°W)
Time: 17:25:06
(UTC-06:00)
Language:

CUTE-I - Orbit

View from above orbital plane
View from above orbital plane
View from above satellite
View from above satellite

Ground track
Ground track

The orbit data is extracted from the following two-line orbital elements,

1 27844U 03031E   21023.76954092  .00000064  00000-0  48581-4 0  9992
2 27844  98.6817  34.1664 0010629 133.8277 226.3781 14.22283694911459
Epoch (UTC): 23 January 2021 18:28:08
Eccentricity: 0.0010629
inclination: 98.6817°
perigee height: 810 km
apogee height: 825 km
right ascension of ascending node: 34.1664°
argument of perigee: 133.8277°
revolutions per day: 14.22283694
mean anomaly at epoch: 226.3781°
orbit number at epoch: 91145

The dashed part of the orbit path shows where the satellite is in the earth's shadow,  

DLR